Time,TemperatureF,DewpointF,PressureIn,WindDirection,WindDirectionDegrees,WindSpeedMPH,WindSpeedGustMPH,Humidity,HourlyPrecipIn,Conditions,Clouds,dailyrainin,SoftwareType,DateUTC
2013-01-03 00:06:00,8.8,0.0,30.05,WNW,293,2.0,-999.0,68,-99.99,,,0.00,weatherlink.com 1.10,2013-01-03 05:06:00,
2013-01-03 00:20:00,9.0,0.0,30.05,NW,304,6.0,-999.0,68,-99.99,,,0.00,weatherlink.com 1.10,2013-01-03 05:20:00,
2013-01-03 00:35:00,9.1,0.0,30.06,NW,319,3.0,-999.0,67,-99.99,,,0.00,weatherlink.com 1.10,2013-01-03 05:35:00,
2013-01-03 00:50:00,8.8,0.0,30.06,WNW,298,5.0,-999.0,67,-99.99,,,0.00,weatherlink.com 1.10,2013-01-03 05:50:00,
2013-01-03 01:05:00,9.2,1.0,30.06,WNW,300,2.0,-999.0,68,-99.99,,,0.00,weatherlink.com 1.10,2013-01-03 06:05:00,
2013-01-03 01:20:00,9.5,1.0,30.06,WNW,302,5.0,-999.0,67,-99.99,,,0.00,weatherlink.com 1.10,2013-01-03 06:20:00,
2013-01-03 01:35:00,9.4,1.0,30.06,WNW,300,2.0,-999.0,70,-99.99,,,0.00,weatherlink.com 1.10,2013-01-03 06:35:00,
2013-01-03 01:50:00,9.9,3.0,30.07,WNW,302,3.0,-999.0,73,-99.99,,,0.00,weatherlink.com 1.10,2013-01-03 06:50:00,
2013-01-03 02:05:00,9.5,3.0,30.07,WNW,291,0.0,-999.0,73,-99.99,,,0.00,weatherlink.com 1.10,2013-01-03 07:05:00,
2013-01-03 02:20:00,9.6,3.0,30.07,WNW,292,2.0,-999.0,74,-99.99,,,0.00,weatherlink.com 1.10,2013-01-03 07:20:00,
2013-01-03 02:36:00,9.5,3.0,30.08,West,279,0.0,-999.0,76,-99.99,,,0.00,weatherlink.com 1.10,2013-01-03 07:36:00,
2013-01-03 02:50:00,9.6,3.0,30.08,WNW,293,3.0,-999.0,73,-99.99,,,0.00,weatherlink.com 1.10,2013-01-03 07:50:00,
2013-01-03 03:05:00,9.9,3.0,30.07,NNW,337,10.0,-999.0,73,-99.99,,,0.00,weatherlink.com 1.10,2013-01-03 08:05:00,
2013-01-03 03:20:00,9.7,2.0,30.07,NW,315,0.0,-999.0,72,-99.99,,,0.00,weatherlink.com 1.10,2013-01-03 08:20:00,
2013-01-03 03:35:00,9.5,2.0,30.07,WNW,290,2.0,-999.0,71,-99.99,,,0.00,weatherlink.com 1.10,2013-01-03 08:35:00,
2013-01-03 03:50:00,9.9,3.0,30.07,NW,307,2.0,-999.0,73,-99.99,,,0.00,weatherlink.com 1.10,2013-01-03 08:50:00,
2013-01-03 04:05:00,9.9,3.0,30.07,NW,312,2.0,-999.0,73,-99.99,,,0.00,weatherlink.com 1.10,2013-01-03 09:05:00,
2013-01-03 04:20:00,9.8,3.0,30.07,NW,307,3.0,-999.0,75,-99.99,,,0.00,weatherlink.com 1.10,2013-01-03 09:20:00,
2013-01-03 04:35:00,10.3,4.0,30.07,NW,309,2.0,-999.0,76,-99.99,,,0.00,weatherlink.com 1.10,2013-01-03 09:35:00,
2013-01-03 04:50:00,10.3,4.0,30.07,WNW,298,3.0,-999.0,75,-99.99,,,0.00,weatherlink.com 1.10,2013-01-03 09:50:00,
2013-01-03 05:05:00,10.4,3.0,30.07,WNW,297,5.0,-999.0,71,-99.99,,,0.00,weatherlink.com 1.10,2013-01-03 10:05:00,
2013-01-03 05:20:00,10.4,3.0,30.06,NW,315,3.0,-999.0,72,-99.99,,,0.00,weatherlink.com 1.10,2013-01-03 10:20:00,
2013-01-03 05:35:00,10.2,3.0,30.07,WNW,300,2.0,-999.0,72,-99.99,,,0.00,weatherlink.com 1.10,2013-01-03 10:35:00,
2013-01-03 05:50:00,10.2,3.0,30.06,WNW,299,1.0,-999.0,74,-99.99,,,0.00,weatherlink.com 1.10,2013-01-03 10:50:00,
2013-01-03 06:05:00,10.3,3.0,30.07,WNW,302,3.0,-999.0,71,-99.99,,,0.00,weatherlink.com 1.10,2013-01-03 11:05:00,
2013-01-03 06:20:00,10.5,3.0,30.07,WNW,302,5.0,-999.0,73,-99.99,,,0.00,weatherlink.com 1.10,2013-01-03 11:20:00,
2013-01-03 06:35:00,10.7,3.0,30.07,WNW,300,3.0,-999.0,72,-99.99,,,0.00,weatherlink.com 1.10,2013-01-03 11:35:00,
2013-01-03 06:50:00,10.4,2.0,30.07,WNW,298,3.0,-999.0,70,-99.99,,,0.00,weatherlink.com 1.10,2013-01-03 11:50:00,
2013-01-03 07:05:00,10.5,3.0,30.07,NW,309,3.0,-999.0,73,-99.99,,,0.00,weatherlink.com 1.10,2013-01-03 12:05:00,
2013-01-03 07:20:00,10.6,4.0,30.08,NW,306,3.0,-999.0,74,-99.99,,,0.00,weatherlink.com 1.10,2013-01-03 12:20:00,
2013-01-03 07:35:00,11.4,4.0,30.09,NW,318,4.0,-999.0,72,-99.99,,,0.00,weatherlink.com 1.10,2013-01-03 12:35:00,
2013-01-03 07:51:00,11.4,4.0,30.08,WNW,299,4.0,-999.0,72,-99.99,,,0.00,weatherlink.com 1.10,2013-01-03 12:51:00,
2013-01-03 08:05:00,11.4,4.0,30.09,NW,318,2.0,-999.0,72,-99.99,,,0.00,weatherlink.com 1.10,2013-01-03 13:05:00,
2013-01-03 08:20:00,11.4,3.0,30.09,NW,310,5.0,-999.0,70,-99.99,,,0.00,weatherlink.com 1.10,2013-01-03 13:20:00,
2013-01-03 08:35:00,12.0,4.0,30.08,NW,310,2.0,-999.0,70,-99.99,,,0.00,weatherlink.com 1.10,2013-01-03 13:35:00,
2013-01-03 08:50:00,13.1,5.0,30.08,NW,309,4.0,-999.0,70,-99.99,,,0.00,weatherlink.com 1.10,2013-01-03 13:50:00,
2013-01-03 09:05:00,13.3,5.0,30.08,NW,304,3.0,-999.0,69,-99.99,,,0.00,weatherlink.com 1.10,2013-01-03 14:05:00,
2013-01-03 09:20:00,13.2,4.0,30.07,NW,317,1.0,-999.0,67,-99.99,,,0.00,weatherlink.com 1.10,2013-01-03 14:20:00,
2013-01-03 09:35:00,13.6,4.0,30.07,NNW,341,9.0,-999.0,66,-99.99,,,0.00,weatherlink.com 1.10,2013-01-03 14:35:00,
2013-01-03 09:50:00,14.6,5.0,30.06,North,355,5.0,-999.0,67,-99.99,,,0.00,weatherlink.com 1.10,2013-01-03 14:50:00,
2013-01-03 10:05:00,15.0,5.0,30.06,NW,321,4.0,-999.0,64,-99.99,,,0.00,weatherlink.com 1.10,2013-01-03 15:05:00,
2013-01-03 10:21:00,15.3,5.0,30.06,NNW,330,2.0,-999.0,65,-99.99,,,0.00,weatherlink.com 1.10,2013-01-03 15:21:00,
2013-01-03 10:36:00,16.1,4.0,30.05,NW,304,5.0,-999.0,60,-99.99,,,0.00,weatherlink.com 1.10,2013-01-03 15:36:00,
2013-01-03 10:51:00,17.0,5.0,30.05,NW,313,1.0,-999.0,60,-99.99,,,0.00,weatherlink.com 1.10,2013-01-03 15:51:00,
2013-01-03 11:06:00,18.1,5.0,30.04,WNW,293,1.0,-999.0,57,-99.99,,,0.00,weatherlink.com 1.10,2013-01-03 16:06:00,
2013-01-03 11:20:00,18.8,6.0,30.04,NW,309,0.0,-999.0,57,-99.99,,,0.00,weatherlink.com 1.10,2013-01-03 16:20:00,
2013-01-03 11:35:00,19.7,5.0,30.03,NW,305,3.0,-999.0,54,-99.99,,,0.00,weatherlink.com 1.10,2013-01-03 16:35:00,
2013-01-03 11:50:00,20.1,6.0,30.03,WNW,282,2.0,-999.0,55,-99.99,,,0.00,weatherlink.com 1.10,2013-01-03 16:50:00,
2013-01-03 12:06:00,20.5,7.0,30.02,WNW,290,1.0,-999.0,56,-99.99,,,0.00,weatherlink.com 1.10,2013-01-03 17:06:00,
2013-01-03 12:20:00,21.5,7.0,30.01,NW,311,0.0,-999.0,54,-99.99,,,0.00,weatherlink.com 1.10,2013-01-03 17:20:00,
2013-01-03 12:35:00,22.7,7.0,30.00,NW,313,1.0,-999.0,51,-99.99,,,0.00,weatherlink.com 1.10,2013-01-03 17:35:00,
2013-01-03 12:50:00,22.7,7.0,30.00,NW,313,1.0,-999.0,52,-99.99,,,0.00,weatherlink.com 1.10,2013-01-03 17:50:00,
2013-01-03 13:06:00,23.6,7.0,30.00,NW,313,1.0,-999.0,50,-99.99,,,0.00,weatherlink.com 1.10,2013-01-03 18:06:00,
2013-01-03 13:20:00,24.3,8.0,30.00,NW,313,2.0,-999.0,49,-99.99,,,0.00,weatherlink.com 1.10,2013-01-03 18:20:00,
2013-01-03 13:35:00,24.3,8.0,29.99,NW,313,4.0,-999.0,49,-99.99,,,0.00,weatherlink.com 1.10,2013-01-03 18:35:00,
2013-01-03 13:50:00,24.3,8.0,29.99,NW,313,1.0,-999.0,49,-99.99,,,0.00,weatherlink.com 1.10,2013-01-03 18:50:00,
2013-01-03 14:05:00,24.4,8.0,29.99,NW,313,2.0,-999.0,50,-99.99,,,0.00,weatherlink.com 1.10,2013-01-03 19:05:00,
2013-01-03 14:51:00,24.1,7.0,29.97,NW,313,0.0,-999.0,48,-99.99,,,0.00,weatherlink.com 1.10,2013-01-03 19:51:00,
2013-01-03 15:05:00,24.0,6.0,29.97,NW,313,0.0,-999.0,46,-99.99,,,0.00,weatherlink.com 1.10,2013-01-03 20:05:00,
2013-01-03 15:20:00,23.8,7.0,29.97,NW,313,1.0,-999.0,48,-99.99,,,0.00,weatherlink.com 1.10,2013-01-03 20:20:00,
2013-01-03 15:35:00,23.7,7.0,29.97,NW,313,0.0,-999.0,49,-99.99,,,0.00,weatherlink.com 1.10,2013-01-03 20:35:00,
2013-01-03 15:50:00,23.2,7.0,29.97,NW,313,0.0,-999.0,50,-99.99,,,0.00,weatherlink.com 1.10,2013-01-03 20:50:00,
2013-01-03 16:05:00,22.3,6.0,29.97,NW,313,0.0,-999.0,50,-99.99,,,0.00,weatherlink.com 1.10,2013-01-03 21:05:00,
2013-01-03 16:21:00,21.8,5.0,29.97,NW,313,1.0,-999.0,49,-99.99,,,0.00,weatherlink.com 1.10,2013-01-03 21:21:00,
2013-01-03 16:36:00,21.2,6.0,29.97,NW,313,0.0,-999.0,51,-99.99,,,0.00,weatherlink.com 1.10,2013-01-03 21:36:00,
2013-01-03 16:51:00,21.1,6.0,29.98,NW,313,1.0,-999.0,52,-99.99,,,0.00,weatherlink.com 1.10,2013-01-03 21:51:00,
2013-01-03 17:06:00,20.9,7.0,29.98,NW,313,2.0,-999.0,56,-99.99,,,0.00,weatherlink.com 1.10,2013-01-03 22:06:00,
2013-01-03 17:20:00,21.1,7.0,29.98,NW,313,0.0,-999.0,55,-99.99,,,0.00,weatherlink.com 1.10,2013-01-03 22:20:00,
2013-01-03 17:35:00,21.2,7.0,29.98,NW,313,0.0,-999.0,55,-99.99,,,0.00,weatherlink.com 1.10,2013-01-03 22:35:00,
2013-01-03 17:50:00,21.6,6.0,29.97,NW,323,4.0,-999.0,51,-99.99,,,0.00,weatherlink.com 1.10,2013-01-03 22:50:00,
2013-01-03 18:05:00,21.7,7.0,29.98,NNW,329,2.0,-999.0,54,-99.99,,,0.00,weatherlink.com 1.10,2013-01-03 23:05:00,
2013-01-03 18:21:00,21.3,7.0,29.98,NNW,329,0.0,-999.0,54,-99.99,,,0.00,weatherlink.com 1.10,2013-01-03 23:21:00,
2013-01-03 18:35:00,20.6,8.0,29.99,NNW,329,0.0,-999.0,58,-99.99,,,0.00,weatherlink.com 1.10,2013-01-03 23:35:00,
2013-01-03 18:50:00,19.8,5.0,29.98,NNW,329,0.0,-999.0,54,-99.99,,,0.00,weatherlink.com 1.10,2013-01-03 23:50:00,
2013-01-03 19:05:00,19.1,5.0,29.99,NNW,329,0.0,-999.0,55,-99.99,,,0.00,weatherlink.com 1.10,2013-01-04 00:05:00,
2013-01-03 19:21:00,18.7,6.0,29.99,NNW,329,0.0,-999.0,59,-99.99,,,0.00,weatherlink.com 1.10,2013-01-04 00:21:00,
2013-01-03 19:36:00,18.4,7.0,29.99,NNW,329,0.0,-999.0,61,-99.99,,,0.00,weatherlink.com 1.10,2013-01-04 00:36:00,
2013-01-03 19:51:00,18.2,7.0,29.99,NNW,329,0.0,-999.0,63,-99.99,,,0.00,weatherlink.com 1.10,2013-01-04 00:51:00,
2013-01-03 20:06:00,18.7,8.0,30.00,NNW,329,0.0,-999.0,64,-99.99,,,0.00,weatherlink.com 1.10,2013-01-04 01:06:00,
2013-01-03 20:20:00,19.9,8.0,29.99,NW,319,2.0,-999.0,59,-99.99,,,0.00,weatherlink.com 1.10,2013-01-04 01:20:00,
2013-01-03 20:35:00,20.1,9.0,29.99,West,276,1.0,-999.0,61,-99.99,,,0.00,weatherlink.com 1.10,2013-01-04 01:35:00,
2013-01-03 20:50:00,20.2,9.0,29.99,West,271,2.0,-999.0,62,-99.99,,,0.00,weatherlink.com 1.10,2013-01-04 01:50:00,
2013-01-03 21:05:00,19.9,9.0,29.98,West,268,0.0,-999.0,64,-99.99,,,0.00,weatherlink.com 1.10,2013-01-04 02:05:00,
2013-01-03 21:21:00,19.6,10.0,29.99,West,268,1.0,-999.0,65,-99.99,,,0.00,weatherlink.com 1.10,2013-01-04 02:21:00,
2013-01-03 21:36:00,19.3,9.0,29.98,West,268,2.0,-999.0,63,-99.99,,,0.00,weatherlink.com 1.10,2013-01-04 02:36:00,
2013-01-03 21:51:00,19.2,9.0,29.98,West,263,1.0,-999.0,64,-99.99,,,0.00,weatherlink.com 1.10,2013-01-04 02:51:00,
2013-01-03 22:06:00,19.0,9.0,29.98,West,261,4.0,-999.0,64,-99.99,,,0.00,weatherlink.com 1.10,2013-01-04 03:06:00,
2013-01-03 22:21:00,18.9,9.0,29.97,West,262,3.0,-999.0,65,-99.99,,,0.00,weatherlink.com 1.10,2013-01-04 03:21:00,
2013-01-03 22:36:00,19.2,10.0,29.98,WSW,242,5.0,-999.0,67,-99.99,,,0.00,weatherlink.com 1.10,2013-01-04 03:36:00,
2013-01-03 22:51:00,19.6,11.0,29.97,WSW,252,4.0,-999.0,68,-99.99,,,0.00,weatherlink.com 1.10,2013-01-04 03:51:00,
2013-01-03 23:06:00,19.3,11.0,29.97,WSW,250,3.0,-999.0,70,-99.99,,,0.00,weatherlink.com 1.10,2013-01-04 04:06:00,
2013-01-03 23:21:00,19.7,11.0,29.95,WNW,287,6.0,-999.0,70,-99.99,,,0.00,weatherlink.com 1.10,2013-01-04 04:21:00,
2013-01-03 23:36:00,19.4,10.0,29.95,West,262,6.0,-999.0,68,-99.99,,,0.00,weatherlink.com 1.10,2013-01-04 04:36:00,
2013-01-03 23:51:00,19.6,12.0,29.94,WSW,242,8.0,-999.0,72,-99.99,,,0.00,weatherlink.com 1.10,2013-01-04 04:51:00,